• In Belarus
  • List of Countries
  • For 7 days
  • Water Temperature
  • Weather Map
  • Weather Widgets
  • user-avatar
    Login

    Hourly Weather Akshi

    Today, 19 September, Thursday

    Time Temperature Precipitation Wind Pressure Humidity
    00:00 +21°C° 0 mm 3 mps 716 mmHg 25%
    01:00 +21°C° 0 mm 3 mps 716 mmHg 25%
    02:00 +21°C° 0 mm 3 mps 716 mmHg 25%
    03:00 +21°C° 0 mm 3 mps 717 mmHg 25%
    04:00 +21°C° 0 mm 3 mps 717 mmHg 25%
    05:00 +21°C° 0 mm 3 mps 718 mmHg 25%
    06:00 +22°C° 0 mm 3 mps 718 mmHg 23%
    07:00 +25°C° 0 mm 3 mps 719 mmHg 21%
    08:00 +27°C° 0 mm 3 mps 719 mmHg 19%
    09:00 +29°C° 0 mm 3 mps 720 mmHg 16%
    10:00 +32°C° 0 mm 4 mps 720 mmHg 13%
    11:00 +34°C° 0 mm 4 mps 720 mmHg 11%
    12:00 +35°C° 0 mm 4 mps 720 mmHg 10%
    13:00 +35°C° 0 mm 4 mps 719 mmHg 10%
    14:00 +36°C° 0 mm 4 mps 719 mmHg 9%
    15:00 +36°C° 0 mm 3 mps 719 mmHg 10%
    16:00 +35°C° 0 mm 3 mps 719 mmHg 10%
    17:00 +35°C° 0 mm 2 mps 720 mmHg 11%
    18:00 +32°C° 0 mm 2 mps 719 mmHg 13%
    19:00 +29°C° 0 mm 2 mps 719 mmHg 16%
    20:00 +27°C° 0 mm 2 mps 719 mmHg 18%
    21:00 +27°C° 0 mm 2 mps 719 mmHg 19%
    22:00 +26°C° 0 mm 2 mps 719 mmHg 19%
    23:00 +26°C° 0 mm 2 mps 718 mmHg 19%

    Tomorrow, 20 September, Friday

    Time Temperature Precipitation Wind Pressure Humidity
    00:00 +26°C° 0 mm 3 mps 718 mmHg 20%
    01:00 +25°C° 0 mm 3 mps 718 mmHg 22%
    02:00 +25°C° 0 mm 4 mps 717 mmHg 23%
    03:00 +23°C° 0 mm 4 mps 718 mmHg 23%
    04:00 +23°C° 0 mm 4 mps 718 mmHg 24%
    05:00 +22°C° 0 mm 4 mps 718 mmHg 25%
    06:00 +25°C° 0 mm 3 mps 718 mmHg 23%
    07:00 +26°C° 0 mm 3 mps 719 mmHg 21%
    08:00 +28°C° 0 mm 3 mps 719 mmHg 19%
    09:00 +29°C° 0 mm 3 mps 719 mmHg 17%
    10:00 +30°C° 0 mm 3 mps 719 mmHg 16%
    11:00 +33°C° 0 mm 3 mps 719 mmHg 14%
    12:00 +34°C° 0 mm 3 mps 719 mmHg 14%
    13:00 +34°C° 0 mm 3 mps 719 mmHg 14%
    14:00 +35°C° 0 mm 4 mps 718 mmHg 14%
    15:00 +34°C° 0 mm 4 mps 718 mmHg 14%
    16:00 +34°C° 0 mm 4 mps 718 mmHg 15%
    17:00 +34°C° 0 mm 4 mps 718 mmHg 15%
    18:00 +31°C° 0 mm 3 mps 719 mmHg 17%
    19:00 +29°C° 0 mm 3 mps 719 mmHg 18%
    20:00 +28°C° 0 mm 3 mps 719 mmHg 19%
    21:00 +27°C° 0 mm 2 mps 719 mmHg 21%
    22:00 +25°C° 0 mm 2 mps 719 mmHg 23%
    23:00 +24°C° 0 mm 2 mps 718 mmHg 24%

    Day after tomorrow, 21 September, Saturday

    Time Temperature Precipitation Wind Pressure Humidity
    00:00 +24°C° 0 mm 2 mps 718 mmHg 25%
    01:00 +23°C° 0 mm 2 mps 718 mmHg 26%
    02:00 +21°C° 0 mm 2 mps 718 mmHg 26%
    03:00 +21°C° 0 mm 2 mps 718 mmHg 27%
    04:00 +21°C° 0 mm 2 mps 718 mmHg 27%
    05:00 +20°C° 0 mm 2 mps 718 mmHg 28%
    06:00 +23°C° 0 mm 2 mps 718 mmHg 26%
    07:00 +24°C° 0 mm 3 mps 718 mmHg 24%
    08:00 +26°C° 0 mm 3 mps 718 mmHg 22%
    09:00 +28°C° 0 mm 3 mps 718 mmHg 20%
    10:00 +30°C° 0 mm 4 mps 718 mmHg 18%
    11:00 +33°C° 0 mm 4 mps 718 mmHg 16%
    12:00 +33°C° 0 mm 4 mps 717 mmHg 15%
    13:00 +34°C° 0 mm 4 mps 717 mmHg 14%
    14:00 +35°C° 0 mm 4 mps 716 mmHg 13%
    15:00 +35°C° 0 mm 4 mps 716 mmHg 13%
    16:00 +34°C° 0 mm 4 mps 716 mmHg 14%
    17:00 +34°C° 0 mm 4 mps 716 mmHg 15%
    18:00 +32°C° 0 mm 4 mps 716 mmHg 17%
    19:00 +29°C° 0 mm 4 mps 716 mmHg 20%
    20:00 +27°C° 0 mm 4 mps 716 mmHg 22%
    21:00 +26°C° 0 mm 3 mps 715 mmHg 23%
    22:00 +25°C° 0 mm 2 mps 714 mmHg 25%
    23:00 +24°C° 0 mm 2 mps 714 mmHg 26%

    22 September, Sunday

    Time Temperature Precipitation Wind Pressure Humidity
    00:00 +24°C° 0 mm 2 mps 713 mmHg 26%
    01:00 +23°C° 0 mm 2 mps 713 mmHg 26%
    02:00 +23°C° 0 mm 2 mps 713 mmHg 26%
    03:00 +22°C° 0 mm 3 mps 712 mmHg 27%
    04:00 +22°C° 0 mm 3 mps 712 mmHg 27%
    05:00 +22°C° 0 mm 4 mps 712 mmHg 27%
    06:00 +23°C° 0 mm 5 mps 712 mmHg 25%
    07:00 +26°C° 0 mm 6 mps 712 mmHg 23%
    08:00 +28°C° 0 mm 7 mps 713 mmHg 20%
    09:00 +30°C° 0 mm 7 mps 713 mmHg 18%
    10:00 +33°C° 0 mm 7 mps 713 mmHg 16%
    11:00 +35°C° 0 mm 6 mps 713 mmHg 13%
    12:00 +36°C° 0 mm 6 mps 712 mmHg 12%
    13:00 +37°C° 0 mm 5 mps 712 mmHg 11%
    14:00 +38°C° 0 mm 4 mps 712 mmHg 10%
    15:00 +38°C° 0 mm 4 mps 712 mmHg 10%
    16:00 +37°C° 0 mm 4 mps 712 mmHg 10%
    17:00 +37°C° 0 mm 4 mps 712 mmHg 11%
    18:00 +35°C° 0 mm 4 mps 712 mmHg 13%
    19:00 +33°C° 0 mm 4 mps 712 mmHg 15%
    20:00 +30°C° 0 mm 5 mps 713 mmHg 17%
    21:00 +30°C° 0 mm 5 mps 713 mmHg 17%
    22:00 +30°C° 0 mm 6 mps 714 mmHg 17%
    23:00 +29°C° 0 mm 7 mps 715 mmHg 18%

    23 September, Monday

    Time Temperature Precipitation Wind Pressure Humidity
    00:00 +27°C° 0 mm 8 mps 717 mmHg 28%
    01:00 +23°C° 0 mm 8 mps 719 mmHg 38%
    02:00 +21°C° 0 mm 9 mps 721 mmHg 48%
    03:00 +20°C° 0 mm 7 mps 721 mmHg 47%
    04:00 +19°C° 0 mm 5 mps 722 mmHg 46%
    05:00 +18°C° 0 mm 3 mps 723 mmHg 45%
    06:00 +19°C° 0 mm 3 mps 723 mmHg 43%
    07:00 +19°C° 0 mm 3 mps 723 mmHg 42%
    08:00 +19°C° 0 mm 3 mps 722 mmHg 40%
    09:00 +20°C° 0 mm 3 mps 722 mmHg 38%
    10:00 +21°C° 0 mm 3 mps 721 mmHg 36%
    11:00 +23°C° 0 mm 2 mps 721 mmHg 33%
    12:00 +24°C° 0 mm 3 mps 720 mmHg 32%
    13:00 +25°C° 0 mm 3 mps 720 mmHg 31%
    14:00 +26°C° 0 mm 3 mps 719 mmHg 30%
    15:00 +26°C° 0 mm 3 mps 719 mmHg 30%
    16:00 +26°C° 0 mm 3 mps 718 mmHg 29%
    17:00 +26°C° 0 mm 3 mps 718 mmHg 29%
    18:00 +25°C° 0 mm 3 mps 718 mmHg 30%
    19:00 +24°C° 0 mm 3 mps 718 mmHg 30%
    20:00 +23°C° 0 mm 2 mps 717 mmHg 31%
    21:00 +21°C° 0 mm 2 mps 717 mmHg 32%
    22:00 +20°C° 0 mm 2 mps 717 mmHg 33%
    23:00 +21°C° 0 mm 1 mps 716 mmHg 33%

    24 September, Tuesday

    Time Temperature Precipitation Wind Pressure Humidity
    00:00 +20°C° 0 mm 1 mps 716 mmHg 34%
    01:00 +20°C° 0 mm 1 mps 716 mmHg 35%
    02:00 +19°C° 0 mm 1 mps 717 mmHg 37%
    03:00 +19°C° 0 mm 2 mps 717 mmHg 37%
    04:00 +19°C° 0 mm 2 mps 718 mmHg 38%
    05:00 +19°C° 0 mm 3 mps 718 mmHg 39%
    06:00 +20°C° 0 mm 5 mps 719 mmHg 35%
    07:00 +22°C° 0 mm 6 mps 719 mmHg 32%
    08:00 +23°C° 0 mm 7 mps 720 mmHg 28%
    09:00 +23°C° 0 mm 7 mps 720 mmHg 25%
    10:00 +24°C° 0 mm 7 mps 721 mmHg 21%
    11:00 +24°C° 0 mm 7 mps 721 mmHg 17%
    12:00 +26°C° 0 mm 7 mps 721 mmHg 17%
    13:00 +26°C° 0 mm 6 mps 721 mmHg 16%
    14:00 +26°C° 0 mm 6 mps 721 mmHg 16%
    15:00 +26°C° 0 mm 5 mps 721 mmHg 17%
    16:00 +25°C° 0 mm 5 mps 722 mmHg 19%
    17:00 +25°C° 0 mm 4 mps 722 mmHg 20%
    18:00 +23°C° 0 mm 4 mps 722 mmHg 24%
    19:00 +21°C° 0 mm 3 mps 723 mmHg 27%
    20:00 +20°C° 0 mm 2 mps 723 mmHg 31%
    21:00 +19°C° 0 mm 2 mps 723 mmHg 33%
    22:00 +18°C° 0 mm 3 mps 723 mmHg 36%
    23:00 +18°C° 0 mm 3 mps 723 mmHg 38%
    Show more